Year,Month,Day,Hour,Minute,Value (Times are PST for temperature in C)
2011,09,19,00,00,13.50
2011,09,19,00,01,13.50
2011,09,19,00,02,13.50
2011,09,19,00,03,13.50
2011,09,19,00,04,13.40
2011,09,19,00,05,13.40
2011,09,19,00,06,13.40
2011,09,19,00,07,13.40
2011,09,19,00,08,13.30
2011,09,19,00,09,13.30
2011,09,19,00,10,13.30
2011,09,19,00,11,13.30
2011,09,19,00,12,13.30
2011,09,19,00,13,13.30
2011,09,19,00,14,13.30
2011,09,19,00,15,13.30
2011,09,19,00,16,13.20
2011,09,19,00,17,13.20
2011,09,19,00,18,13.20
2011,09,19,00,19,13.20
2011,09,19,00,20,13.10
2011,09,19,00,21,13.10
2011,09,19,00,22,13.10
2011,09,19,00,23,13.10
2011,09,19,00,24,13.20
2011,09,19,00,25,13.20
2011,09,19,00,26,13.20
2011,09,19,00,27,13.20
2011,09,19,00,28,13.20
2011,09,19,00,29,13.10
2011,09,19,00,30,13.10
2011,09,19,00,31,13.10
2011,09,19,00,32,13.10
2011,09,19,00,33,13.10
2011,09,19,00,34,13.10
2011,09,19,00,35,13.00
2011,09,19,00,36,13.00
2011,09,19,00,37,13.00
2011,09,19,00,38,13.00
2011,09,19,00,39,12.90
2011,09,19,00,40,12.90
2011,09,19,00,41,12.90
2011,09,19,00,42,12.90
2011,09,19,00,43,12.90
2011,09,19,00,44,12.80
2011,09,19,00,45,12.80
2011,09,19,00,46,12.80
2011,09,19,00,47,12.80
2011,09,19,00,48,12.80
2011,09,19,00,49,12.80
2011,09,19,00,50,12.80
2011,09,19,00,51,12.80
2011,09,19,00,52,12.80
2011,09,19,00,53,12.80
2011,09,19,00,54,12.80
2011,09,19,00,55,12.70
2011,09,19,00,56,12.70
2011,09,19,00,57,12.70
2011,09,19,00,58,12.70
2011,09,19,00,59,12.70
2011,09,19,01,00,12.70
2011,09,19,01,01,12.70
2011,09,19,01,02,12.70
2011,09,19,01,03,12.80
2011,09,19,01,04,12.80
2011,09,19,01,05,12.80
2011,09,19,01,06,12.80
2011,09,19,01,07,12.80
2011,09,19,01,08,12.80
2011,09,19,01,09,12.80
2011,09,19,01,10,12.80
2011,09,19,01,11,12.80
2011,09,19,01,12,12.80
2011,09,19,01,13,12.70
2011,09,19,01,14,12.70
2011,09,19,01,15,12.70
2011,09,19,01,16,12.70
2011,09,19,01,17,12.70
2011,09,19,01,18,12.70
2011,09,19,01,19,12.70
2011,09,19,01,20,12.70
2011,09,19,01,21,12.60
2011,09,19,01,22,12.60
2011,09,19,01,23,12.70
2011,09,19,01,24,12.70
2011,09,19,01,25,12.70
2011,09,19,01,26,12.80
2011,09,19,01,27,12.80
2011,09,19,01,28,12.80
2011,09,19,01,29,12.90
2011,09,19,01,30,13.00
2011,09,19,01,31,13.00
2011,09,19,01,32,13.10
2011,09,19,01,33,13.10
2011,09,19,01,34,13.10
2011,09,19,01,35,13.10
2011,09,19,01,36,13.20
2011,09,19,01,37,13.20
2011,09,19,01,38,13.20
2011,09,19,01,39,13.20
2011,09,19,01,40,13.30
2011,09,19,01,41,13.30
2011,09,19,01,42,13.30
2011,09,19,01,43,13.30
2011,09,19,01,44,13.30
2011,09,19,01,45,13.30
2011,09,19,01,46,13.30
2011,09,19,01,47,13.30
2011,09,19,01,48,13.30
2011,09,19,01,49,13.30
2011,09,19,01,50,13.30
2011,09,19,01,51,13.30
2011,09,19,01,52,13.30
2011,09,19,01,53,13.30
2011,09,19,01,54,13.30
2011,09,19,01,55,13.30
2011,09,19,01,56,13.30
2011,09,19,01,57,13.30
2011,09,19,01,58,13.30
2011,09,19,01,59,13.30
2011,09,19,02,00,13.30
2011,09,19,02,01,13.30
2011,09,19,02,02,13.30
2011,09,19,02,03,13.30
2011,09,19,02,04,13.20
2011,09,19,02,05,13.20
2011,09,19,02,06,13.10
2011,09,19,02,07,13.10
2011,09,19,02,08,13.10
2011,09,19,02,09,13.00
2011,09,19,02,10,13.00
2011,09,19,02,11,13.00
2011,09,19,02,12,13.00
2011,09,19,02,13,12.90
2011,09,19,02,14,12.90
2011,09,19,02,15,12.90
2011,09,19,02,16,12.90
2011,09,19,02,17,12.90
2011,09,19,02,18,12.90
2011,09,19,02,19,12.90
2011,09,19,02,20,12.90
2011,09,19,02,21,12.90
2011,09,19,02,22,12.90
2011,09,19,02,23,12.90
2011,09,19,02,24,12.90
2011,09,19,02,25,12.90
2011,09,19,02,26,12.90
2011,09,19,02,27,12.90
2011,09,19,02,28,12.90
2011,09,19,02,29,12.80
2011,09,19,02,30,12.80
2011,09,19,02,31,12.80
2011,09,19,02,32,12.80
2011,09,19,02,33,12.80
2011,09,19,02,34,12.80
2011,09,19,02,35,12.80
2011,09,19,02,36,12.80
2011,09,19,02,37,12.80
2011,09,19,02,38,12.80
2011,09,19,02,39,12.80
2011,09,19,02,40,12.80
2011,09,19,02,41,12.80
2011,09,19,02,42,12.80
2011,09,19,02,43,12.80
2011,09,19,02,44,12.80
2011,09,19,02,45,12.70
2011,09,19,02,46,12.70
2011,09,19,02,47,12.70
2011,09,19,02,48,12.70
2011,09,19,02,49,12.70
2011,09,19,02,50,12.60
2011,09,19,02,51,12.60
2011,09,19,02,52,12.60
2011,09,19,02,53,12.60
2011,09,19,02,54,12.60
2011,09,19,02,55,12.50
2011,09,19,02,56,12.50
2011,09,19,02,57,12.50
2011,09,19,02,58,12.50
2011,09,19,02,59,12.50
2011,09,19,03,00,12.50
2011,09,19,03,01,12.50
2011,09,19,03,02,12.50
2011,09,19,03,03,12.50
2011,09,19,03,04,12.40
2011,09,19,03,05,12.40
2011,09,19,03,06,12.40
2011,09,19,03,07,12.40
2011,09,19,03,08,12.40
2011,09,19,03,09,12.40
2011,09,19,03,10,12.30
2011,09,19,03,11,12.30
2011,09,19,03,12,12.30
2011,09,19,03,13,12.30
2011,09,19,03,14,12.30
2011,09,19,03,15,12.30
2011,09,19,03,16,12.30
2011,09,19,03,17,12.20
2011,09,19,03,18,12.20
2011,09,19,03,19,12.10
2011,09,19,03,20,12.10
2011,09,19,03,21,12.00
2011,09,19,03,22,12.00
2011,09,19,03,23,11.90
2011,09,19,03,24,11.90
2011,09,19,03,25,11.90
2011,09,19,03,26,11.80
2011,09,19,03,27,11.80
2011,09,19,03,28,11.80
2011,09,19,03,29,11.80
2011,09,19,03,30,11.70
2011,09,19,03,31,11.70
2011,09,19,03,32,11.70
2011,09,19,03,33,11.60
2011,09,19,03,34,11.60
2011,09,19,03,35,11.60
2011,09,19,03,36,11.60
2011,09,19,03,37,11.60
2011,09,19,03,38,11.60
2011,09,19,03,39,11.60
2011,09,19,03,40,11.60
2011,09,19,03,41,11.60
2011,09,19,03,42,11.60
2011,09,19,03,43,11.60
2011,09,19,03,44,11.60
2011,09,19,03,45,11.50
2011,09,19,03,46,11.40
2011,09,19,03,47,11.40
2011,09,19,03,48,11.40
2011,09,19,03,49,11.40
2011,09,19,03,50,11.30
2011,09,19,03,51,11.30
2011,09,19,03,52,11.20
2011,09,19,03,53,11.20
2011,09,19,03,54,11.20
2011,09,19,03,55,11.20
2011,09,19,03,56,11.20
2011,09,19,03,57,11.20
2011,09,19,03,58,11.20
2011,09,19,03,59,11.20
2011,09,19,04,00,11.30
2011,09,19,04,01,11.30
2011,09,19,04,02,11.30
2011,09,19,04,03,11.20
2011,09,19,04,04,11.20
2011,09,19,04,05,11.20
2011,09,19,04,06,11.20
2011,09,19,04,07,11.20
2011,09,19,04,08,11.10
2011,09,19,04,09,11.10
2011,09,19,04,10,11.10
2011,09,19,04,11,11.10
2011,09,19,04,12,11.20
2011,09,19,04,13,11.20
2011,09,19,04,14,11.20
2011,09,19,04,15,11.30
2011,09,19,04,16,11.30
2011,09,19,04,17,11.30
2011,09,19,04,18,11.30
2011,09,19,04,19,11.20
2011,09,19,04,20,11.20
2011,09,19,04,21,11.20
2011,09,19,04,22,11.20
2011,09,19,04,23,11.10
2011,09,19,04,24,11.10
2011,09,19,04,25,11.10
2011,09,19,04,26,11.10
2011,09,19,04,27,11.00
2011,09,19,04,28,10.90
2011,09,19,04,29,10.90
2011,09,19,04,30,10.90
2011,09,19,04,31,10.90
2011,09,19,04,32,10.80
2011,09,19,04,33,10.80
2011,09,19,04,34,10.80
2011,09,19,04,35,10.90
2011,09,19,04,36,10.90
2011,09,19,04,37,10.90
2011,09,19,04,38,10.90
2011,09,19,04,39,10.90
2011,09,19,04,40,10.90
2011,09,19,04,41,10.90
2011,09,19,04,42,10.90
2011,09,19,04,43,10.90
2011,09,19,04,44,10.90
2011,09,19,04,45,10.90
2011,09,19,04,46,10.80
2011,09,19,04,47,10.80
2011,09,19,04,48,10.70
2011,09,19,04,49,10.70
2011,09,19,04,50,10.60
2011,09,19,04,51,10.60
2011,09,19,04,52,10.60
2011,09,19,04,53,10.60
2011,09,19,04,54,10.60
2011,09,19,04,55,10.40
2011,09,19,04,56,10.40
2011,09,19,04,57,10.40
2011,09,19,04,58,10.30
2011,09,19,04,59,10.30
2011,09,19,05,00,10.30
2011,09,19,05,01,10.30
2011,09,19,05,02,10.40
2011,09,19,05,03,10.40
2011,09,19,05,04,10.40
2011,09,19,05,05,10.40
2011,09,19,05,06,10.40
2011,09,19,05,07,10.40
2011,09,19,05,08,10.40
2011,09,19,05,09,10.40
2011,09,19,05,10,10.30
2011,09,19,05,11,10.30
2011,09,19,05,12,10.30
2011,09,19,05,13,10.30
2011,09,19,05,14,10.20
2011,09,19,05,15,10.20
2011,09,19,05,16,10.20
2011,09,19,05,17,10.20
2011,09,19,05,18,10.10
2011,09,19,05,19,10.10
2011,09,19,05,20,10.10
2011,09,19,05,21,10.00
2011,09,19,05,22,9.90
2011,09,19,05,23,9.90
2011,09,19,05,24,9.90
2011,09,19,05,25,9.90
2011,09,19,05,26,9.90
2011,09,19,05,27,9.90
2011,09,19,05,28,9.90
2011,09,19,05,29,9.90
2011,09,19,05,30,9.80
2011,09,19,05,31,9.80
2011,09,19,05,32,9.80
2011,09,19,05,33,9.80
2011,09,19,05,34,9.80
2011,09,19,05,35,9.80
2011,09,19,05,36,9.70
2011,09,19,05,37,9.70
2011,09,19,05,38,9.70
2011,09,19,05,39,9.70
2011,09,19,05,40,9.70
2011,09,19,05,41,9.60
2011,09,19,05,42,9.60
2011,09,19,05,43,9.50
2011,09,19,05,44,9.50
2011,09,19,05,45,9.40
2011,09,19,05,46,9.40
2011,09,19,05,47,9.40
2011,09,19,05,48,9.40
2011,09,19,05,49,9.50
2011,09,19,05,50,9.60
2011,09,19,05,51,9.70
2011,09,19,05,52,9.70
2011,09,19,05,53,9.60
2011,09,19,05,54,9.60
2011,09,19,05,55,9.60
2011,09,19,05,56,9.50
2011,09,19,05,57,9.50
2011,09,19,05,58,9.50
2011,09,19,05,59,9.40
2011,09,19,06,00,9.40
2011,09,19,06,01,9.40
2011,09,19,06,02,9.40
2011,09,19,06,03,9.40
2011,09,19,06,04,9.40
2011,09,19,06,05,9.40
2011,09,19,06,06,9.40
2011,09,19,06,07,9.40
2011,09,19,06,08,9.40
2011,09,19,06,09,9.30
2011,09,19,06,10,9.30
2011,09,19,06,11,9.20
2011,09,19,06,12,9.20
2011,09,19,06,13,9.20
2011,09,19,06,14,9.20
2011,09,19,06,15,9.20
2011,09,19,06,16,9.20
2011,09,19,06,17,9.20
2011,09,19,06,18,9.20
2011,09,19,06,19,9.20
2011,09,19,06,20,9.10
2011,09,19,06,21,9.10
2011,09,19,06,22,9.10
2011,09,19,06,23,9.10
2011,09,19,06,24,9.00
2011,09,19,06,25,9.00
2011,09,19,06,26,9.00
2011,09,19,06,27,9.00
2011,09,19,06,28,9.00
2011,09,19,06,29,8.90
2011,09,19,06,30,8.90
2011,09,19,06,31,8.90
2011,09,19,06,32,8.90
2011,09,19,06,33,8.90
2011,09,19,06,34,8.80
2011,09,19,06,35,8.90
2011,09,19,06,36,8.90
2011,09,19,06,37,8.90
2011,09,19,06,38,8.90
2011,09,19,06,39,8.90
2011,09,19,06,40,8.90
2011,09,19,06,41,8.90
2011,09,19,06,42,8.90
2011,09,19,06,43,8.90
2011,09,19,06,44,8.80
2011,09,19,06,45,8.90
2011,09,19,06,46,8.80
2011,09,19,06,47,8.80
2011,09,19,06,48,8.80
2011,09,19,06,49,8.80
2011,09,19,06,50,8.70
2011,09,19,06,51,8.70
2011,09,19,06,52,8.70
2011,09,19,06,53,8.70
2011,09,19,06,54,8.70
2011,09,19,06,55,8.70
2011,09,19,06,56,8.70
2011,09,19,06,57,8.70
2011,09,19,06,58,8.70
2011,09,19,06,59,8.70
2011,09,19,07,00,8.60
2011,09,19,07,01,8.60
2011,09,19,07,02,8.60
2011,09,19,07,03,8.60
2011,09,19,07,04,8.50
2011,09,19,07,05,8.50
2011,09,19,07,06,8.50
2011,09,19,07,07,8.50
2011,09,19,07,08,8.50
2011,09,19,07,09,8.50
2011,09,19,07,10,8.50
2011,09,19,07,11,8.50
2011,09,19,07,12,8.50
2011,09,19,07,13,8.50
2011,09,19,07,14,8.50
2011,09,19,07,15,8.50
2011,09,19,07,16,8.50
2011,09,19,07,17,8.40
2011,09,19,07,18,8.40
2011,09,19,07,19,8.40
2011,09,19,07,20,8.50
2011,09,19,07,21,8.50
2011,09,19,07,22,8.50
2011,09,19,07,23,8.60
2011,09,19,07,24,8.60
2011,09,19,07,25,8.70
2011,09,19,07,26,8.70
2011,09,19,07,27,8.70
2011,09,19,07,28,8.70
2011,09,19,07,29,8.70
2011,09,19,07,30,8.70
2011,09,19,07,31,8.70
2011,09,19,07,32,8.70
2011,09,19,07,33,8.70
2011,09,19,07,34,8.70
2011,09,19,07,35,8.70
2011,09,19,07,36,8.70
2011,09,19,07,37,8.80
2011,09,19,07,38,8.80
2011,09,19,07,39,8.80
2011,09,19,07,40,8.80
2011,09,19,07,41,8.80
2011,09,19,07,42,8.80
2011,09,19,07,43,8.90
2011,09,19,07,44,8.90
2011,09,19,07,45,9.00
2011,09,19,07,46,9.10
2011,09,19,07,47,9.10
2011,09,19,07,48,9.20
2011,09,19,07,49,9.20
2011,09,19,07,50,9.20
2011,09,19,07,51,9.20
2011,09,19,07,52,9.30
2011,09,19,07,53,9.30
2011,09,19,07,54,9.40
2011,09,19,07,55,9.40
2011,09,19,07,56,9.40
2011,09,19,07,57,9.50
2011,09,19,07,58,9.50
2011,09,19,07,59,9.60
2011,09,19,08,00,9.70
2011,09,19,08,01,9.70
2011,09,19,08,02,9.80
2011,09,19,08,03,9.90
2011,09,19,08,04,10.00
2011,09,19,08,05,10.10
2011,09,19,08,06,10.20
2011,09,19,08,07,10.30
2011,09,19,08,08,10.50
2011,09,19,08,09,10.60
2011,09,19,08,10,10.80
2011,09,19,08,11,10.90
2011,09,19,08,12,11.00
2011,09,19,08,13,11.10
2011,09,19,08,14,11.30
2011,09,19,08,15,11.40
2011,09,19,08,16,11.50
2011,09,19,08,17,11.60
2011,09,19,08,18,11.70
2011,09,19,08,19,11.80
2011,09,19,08,20,11.80
2011,09,19,08,21,11.80
2011,09,19,08,22,11.80
2011,09,19,08,23,11.80
2011,09,19,08,24,11.80
2011,09,19,08,25,11.90
2011,09,19,08,26,11.90
2011,09,19,08,27,11.90
2011,09,19,08,28,11.90
2011,09,19,08,29,12.00
2011,09,19,08,30,12.10
2011,09,19,08,31,12.20
2011,09,19,08,32,12.30
2011,09,19,08,33,12.40
2011,09,19,08,34,12.50
2011,09,19,08,35,12.60
2011,09,19,08,36,12.60
2011,09,19,08,37,12.70
2011,09,19,08,38,12.80
2011,09,19,08,39,12.80
2011,09,19,08,40,12.90
2011,09,19,08,41,12.90
2011,09,19,08,42,13.00
2011,09,19,08,43,13.00
2011,09,19,08,44,13.00
2011,09,19,08,45,13.10
2011,09,19,08,46,13.10
2011,09,19,08,47,13.20
2011,09,19,08,48,13.20
2011,09,19,08,49,13.30
2011,09,19,08,50,13.40
2011,09,19,08,51,13.50
2011,09,19,08,52,13.50
2011,09,19,08,53,13.60
2011,09,19,08,54,13.60
2011,09,19,08,55,13.60
2011,09,19,08,56,13.70
2011,09,19,08,57,13.70
2011,09,19,08,58,13.80
2011,09,19,08,59,13.80
2011,09,19,09,00,13.90
2011,09,19,09,01,14.00
2011,09,19,09,02,14.00
2011,09,19,09,03,14.10
2011,09,19,09,04,14.20
2011,09,19,09,05,14.20
2011,09,19,09,06,14.40
2011,09,19,09,07,14.50
2011,09,19,09,08,14.60
2011,09,19,09,09,14.60
2011,09,19,09,10,14.70
2011,09,19,09,11,14.80
2011,09,19,09,12,14.80
2011,09,19,09,13,14.90
2011,09,19,09,14,15.00
2011,09,19,09,15,15.10
2011,09,19,09,16,15.20
2011,09,19,09,17,15.30
2011,09,19,09,18,15.40
2011,09,19,09,19,15.50
2011,09,19,09,20,15.60
2011,09,19,09,21,15.70
2011,09,19,09,22,15.70
2011,09,19,09,23,15.80
2011,09,19,09,24,15.90
2011,09,19,09,25,16.00
2011,09,19,09,26,16.10
2011,09,19,09,27,16.20
2011,09,19,09,28,16.30
2011,09,19,09,29,16.40
2011,09,19,09,30,16.60
2011,09,19,09,31,16.70
2011,09,19,09,32,16.70
2011,09,19,09,33,16.80
2011,09,19,09,34,16.90
2011,09,19,09,35,16.90
2011,09,19,09,36,17.00
2011,09,19,09,37,17.00
2011,09,19,09,38,17.10
2011,09,19,09,39,17.10
2011,09,19,09,40,17.20
2011,09,19,09,41,17.20
2011,09,19,09,42,17.30
2011,09,19,09,43,17.30
2011,09,19,09,44,17.30
2011,09,19,09,45,17.30
2011,09,19,09,46,17.30
2011,09,19,09,47,17.30
2011,09,19,09,48,17.30
2011,09,19,09,49,17.40
2011,09,19,09,50,17.40
2011,09,19,09,51,17.40
2011,09,19,09,52,17.40
2011,09,19,09,53,17.40
2011,09,19,09,54,17.50
2011,09,19,09,55,17.50
2011,09,19,09,56,17.50
2011,09,19,09,57,17.40
2011,09,19,09,58,17.30
2011,09,19,09,59,17.30
2011,09,19,10,00,17.30
2011,09,19,10,01,17.30
2011,09,19,10,02,17.30
2011,09,19,10,03,17.30
2011,09,19,10,04,17.30
2011,09,19,10,05,17.30
2011,09,19,10,06,17.30
2011,09,19,10,07,17.40
2011,09,19,10,08,17.40
2011,09,19,10,09,17.40
2011,09,19,10,10,17.40
2011,09,19,10,11,17.40
2011,09,19,10,12,17.40
2011,09,19,10,13,17.40
2011,09,19,10,14,17.40
2011,09,19,10,15,17.40
2011,09,19,10,16,17.50
2011,09,19,10,17,17.60
2011,09,19,10,18,17.60
2011,09,19,10,19,17.60
2011,09,19,10,20,17.40
2011,09,19,10,21,17.30
2011,09,19,10,22,17.20
2011,09,19,10,23,17.10
2011,09,19,10,24,17.10
2011,09,19,10,25,17.10
2011,09,19,10,26,17.00
2011,09,19,10,27,17.00
2011,09,19,10,28,17.00
2011,09,19,10,29,16.90
2011,09,19,10,30,16.90
2011,09,19,10,31,16.90
2011,09,19,10,32,16.90
2011,09,19,10,33,16.80
2011,09,19,10,34,16.80
2011,09,19,10,35,16.70
2011,09,19,10,36,16.70
2011,09,19,10,37,16.70
2011,09,19,10,38,16.70
2011,09,19,10,39,16.80
2011,09,19,10,40,16.90
2011,09,19,10,41,17.00
2011,09,19,10,42,17.00
2011,09,19,10,43,17.20
2011,09,19,10,44,17.20
2011,09,19,10,45,17.30
2011,09,19,10,46,17.30
2011,09,19,10,47,17.30
2011,09,19,10,48,17.30
2011,09,19,10,49,17.30
2011,09,19,10,50,17.20
2011,09,19,10,51,17.20
2011,09,19,10,52,17.20
2011,09,19,10,53,17.20
2011,09,19,10,54,17.20
2011,09,19,10,55,17.30
2011,09,19,10,56,17.30
2011,09,19,10,57,17.30
2011,09,19,10,58,17.30
2011,09,19,10,59,17.10
2011,09,19,11,00,17.00
2011,09,19,11,01,17.00
2011,09,19,11,02,17.00
2011,09,19,11,03,17.00
2011,09,19,11,04,17.00
2011,09,19,11,05,17.00
2011,09,19,11,06,17.00
2011,09,19,11,07,17.00
2011,09,19,11,08,17.10
2011,09,19,11,09,17.10
2011,09,19,11,10,17.20
2011,09,19,11,11,17.30
2011,09,19,11,12,17.30
2011,09,19,11,13,17.40
2011,09,19,11,14,17.40
2011,09,19,11,15,17.40
2011,09,19,11,16,17.30
2011,09,19,11,17,17.30
2011,09,19,11,18,17.30
2011,09,19,11,19,17.30
2011,09,19,11,20,17.30
2011,09,19,11,21,17.30
2011,09,19,11,22,17.30
2011,09,19,11,23,17.40
2011,09,19,11,24,17.40
2011,09,19,11,25,17.50
2011,09,19,11,26,17.40
2011,09,19,11,27,17.50
2011,09,19,11,28,17.50
2011,09,19,11,29,17.60
2011,09,19,11,30,17.60
2011,09,19,11,31,17.70
2011,09,19,11,32,17.70
2011,09,19,11,33,17.70
2011,09,19,11,34,17.70
2011,09,19,11,35,17.60
2011,09,19,11,36,17.60
2011,09,19,11,37,17.50
2011,09,19,11,38,17.50
2011,09,19,11,39,17.40
2011,09,19,11,40,17.40
2011,09,19,11,41,17.40
2011,09,19,11,42,17.40
2011,09,19,11,43,17.30
2011,09,19,11,44,17.30
2011,09,19,11,45,17.40
2011,09,19,11,46,17.40
2011,09,19,11,47,17.40
2011,09,19,11,48,17.50
2011,09,19,11,49,17.50
2011,09,19,11,50,17.50
2011,09,19,11,51,17.50
2011,09,19,11,52,17.60
2011,09,19,11,53,17.70
2011,09,19,11,54,17.80
2011,09,19,11,55,17.80
2011,09,19,11,56,17.80
2011,09,19,11,57,17.80
2011,09,19,11,58,17.80
2011,09,19,11,59,17.70
2011,09,19,12,00,17.70
2011,09,19,12,01,17.70
2011,09,19,12,02,17.60
2011,09,19,12,03,17.50
2011,09,19,12,04,17.50
2011,09,19,12,05,17.50
2011,09,19,12,06,17.60
2011,09,19,12,07,17.60
2011,09,19,12,08,17.60
2011,09,19,12,09,17.60
2011,09,19,12,10,17.60
2011,09,19,12,11,17.60
2011,09,19,12,12,17.60
2011,09,19,12,13,17.60
2011,09,19,12,14,17.60
2011,09,19,12,15,17.60
2011,09,19,12,16,17.60
2011,09,19,12,17,17.50
2011,09,19,12,18,17.40
2011,09,19,12,19,17.40
2011,09,19,12,20,17.40
2011,09,19,12,21,17.20
2011,09,19,12,22,16.10
2011,09,19,12,23,16.10
2011,09,19,12,24,16.20
2011,09,19,12,25,16.20
2011,09,19,12,26,16.20
2011,09,19,12,27,16.30
2011,09,19,12,28,16.30
2011,09,19,12,29,16.30
2011,09,19,12,30,16.30
2011,09,19,12,31,16.30
2011,09,19,12,32,16.20
2011,09,19,12,33,16.20
2011,09,19,12,34,16.20
2011,09,19,12,35,16.20
2011,09,19,12,36,16.30
2011,09,19,12,37,16.40
2011,09,19,12,38,16.60
2011,09,19,12,39,16.60
2011,09,19,12,40,16.70
2011,09,19,12,41,16.70
2011,09,19,12,42,16.50
2011,09,19,12,43,16.40
2011,09,19,12,44,16.40
2011,09,19,12,45,16.40
2011,09,19,12,46,16.40
2011,09,19,12,47,16.40
2011,09,19,12,48,16.40
2011,09,19,12,49,16.40
2011,09,19,12,50,16.30
2011,09,19,12,51,16.30
2011,09,19,12,52,16.20
2011,09,19,12,53,16.30
2011,09,19,12,54,16.30
2011,09,19,12,55,16.40
2011,09,19,12,56,16.50
2011,09,19,12,57,16.60
2011,09,19,12,58,16.70
2011,09,19,12,59,16.60
2011,09,19,13,00,16.60
2011,09,19,13,01,16.40
2011,09,19,13,02,16.40
2011,09,19,13,03,16.40
2011,09,19,13,04,16.60
2011,09,19,13,05,16.70
2011,09,19,13,06,16.80
2011,09,19,13,07,16.90
2011,09,19,13,08,16.80
2011,09,19,13,09,16.80
2011,09,19,13,10,16.70
2011,09,19,13,11,16.60
2011,09,19,13,12,16.60
2011,09,19,13,13,16.60
2011,09,19,13,14,16.60
2011,09,19,13,15,16.70
2011,09,19,13,16,16.80
2011,09,19,13,17,16.80
2011,09,19,13,18,16.80
2011,09,19,13,19,16.70
2011,09,19,13,20,16.70
2011,09,19,13,21,16.70
2011,09,19,13,22,16.70
2011,09,19,13,23,16.80
2011,09,19,13,24,16.80
2011,09,19,13,25,16.70
2011,09,19,13,26,16.80
2011,09,19,13,27,16.80
2011,09,19,13,28,16.80
2011,09,19,13,29,16.70
2011,09,19,13,30,16.50
2011,09,19,13,31,16.30
2011,09,19,13,32,16.30
2011,09,19,13,33,16.30
2011,09,19,13,34,16.30
2011,09,19,13,35,16.30
2011,09,19,13,36,16.40
2011,09,19,13,37,16.40
2011,09,19,13,38,16.30
2011,09,19,13,39,16.40
2011,09,19,13,40,16.30
2011,09,19,13,41,16.40
2011,09,19,13,42,16.60
2011,09,19,13,43,16.70
2011,09,19,13,44,16.70
2011,09,19,13,45,16.70
2011,09,19,13,46,16.80
2011,09,19,13,47,16.80
2011,09,19,13,48,16.90
2011,09,19,13,49,17.00
2011,09,19,13,50,17.10
2011,09,19,13,51,17.00
2011,09,19,13,52,16.90
2011,09,19,13,53,16.90
2011,09,19,13,54,16.90
2011,09,19,13,55,17.00
2011,09,19,13,56,16.90
2011,09,19,13,57,16.80
2011,09,19,13,58,16.70
2011,09,19,13,59,16.70
2011,09,19,14,00,16.70
2011,09,19,14,01,16.70
2011,09,19,14,02,16.80
2011,09,19,14,03,16.80
2011,09,19,14,04,16.80
2011,09,19,14,05,16.90
2011,09,19,14,06,17.00
2011,09,19,14,07,17.10
2011,09,19,14,08,17.20
2011,09,19,14,09,17.10
2011,09,19,14,10,17.00
2011,09,19,14,11,17.00
2011,09,19,14,12,16.90
2011,09,19,14,13,16.90
2011,09,19,14,14,16.90
2011,09,19,14,15,17.00
2011,09,19,14,16,17.10
2011,09,19,14,17,17.10
2011,09,19,14,18,17.10
2011,09,19,14,19,17.10
2011,09,19,14,20,17.10
2011,09,19,14,21,17.20
2011,09,19,14,22,17.30
2011,09,19,14,23,17.30
2011,09,19,14,24,17.30
2011,09,19,14,25,17.30
2011,09,19,14,26,17.30
2011,09,19,14,27,17.30
2011,09,19,14,28,17.30
2011,09,19,14,29,17.40
2011,09,19,14,30,17.50
2011,09,19,14,31,17.50
2011,09,19,14,32,17.50
2011,09,19,14,33,17.40
2011,09,19,14,34,17.50
2011,09,19,14,35,17.50
2011,09,19,14,36,17.50
2011,09,19,14,37,17.60
2011,09,19,14,38,17.70
2011,09,19,14,39,17.70
2011,09,19,14,40,17.60
2011,09,19,14,41,17.50
2011,09,19,14,42,17.40
2011,09,19,14,43,17.40
2011,09,19,14,44,17.40
2011,09,19,14,45,17.40
2011,09,19,14,46,17.40
2011,09,19,14,47,17.30
2011,09,19,14,48,17.30
2011,09,19,14,49,17.30
2011,09,19,14,50,17.30
2011,09,19,14,51,17.30
2011,09,19,14,52,17.30
2011,09,19,14,53,17.30
2011,09,19,14,54,17.30
2011,09,19,14,55,17.30
2011,09,19,14,56,17.30
2011,09,19,14,57,17.30
2011,09,19,14,58,17.40
2011,09,19,14,59,17.50
2011,09,19,15,00,17.40
2011,09,19,15,01,17.30
2011,09,19,15,02,17.30
2011,09,19,15,03,17.30
2011,09,19,15,04,17.30
2011,09,19,15,05,17.30
2011,09,19,15,06,17.30
2011,09,19,15,07,17.30
2011,09,19,15,08,17.30
2011,09,19,15,09,17.20
2011,09,19,15,10,17.30
2011,09,19,15,11,17.30
2011,09,19,15,12,17.30
2011,09,19,15,13,17.40
2011,09,19,15,14,17.50
2011,09,19,15,15,17.60
2011,09,19,15,16,17.60
2011,09,19,15,17,17.60
2011,09,19,15,18,17.60
2011,09,19,15,19,17.50
2011,09,19,15,20,17.50
2011,09,19,15,21,17.50
2011,09,19,15,22,17.60
2011,09,19,15,23,17.60
2011,09,19,15,24,17.60
2011,09,19,15,25,17.50
2011,09,19,15,26,17.40
2011,09,19,15,27,17.40
2011,09,19,15,28,17.40
2011,09,19,15,29,17.40
2011,09,19,15,30,17.50
2011,09,19,15,31,17.50
2011,09,19,15,32,17.40
2011,09,19,15,33,17.30
2011,09,19,15,34,17.30
2011,09,19,15,35,17.30
2011,09,19,15,36,17.30
2011,09,19,15,37,17.30
2011,09,19,15,38,17.30
2011,09,19,15,39,17.30
2011,09,19,15,40,17.30
2011,09,19,15,41,17.30
2011,09,19,15,42,17.20
2011,09,19,15,43,17.20
2011,09,19,15,44,17.20
2011,09,19,15,45,17.30
2011,09,19,15,46,17.40
2011,09,19,15,47,17.50
2011,09,19,15,48,17.50
2011,09,19,15,49,17.50
2011,09,19,15,50,17.50
2011,09,19,15,51,17.50
2011,09,19,15,52,17.60
2011,09,19,15,53,17.60
2011,09,19,15,54,17.70
2011,09,19,15,55,17.70
2011,09,19,15,56,17.70
2011,09,19,15,57,17.70
2011,09,19,15,58,17.50
2011,09,19,15,59,17.50
2011,09,19,16,00,17.50
2011,09,19,16,01,17.60
2011,09,19,16,02,17.60
2011,09,19,16,03,17.70
2011,09,19,16,04,17.70
2011,09,19,16,05,17.90
2011,09,19,16,06,17.90
2011,09,19,16,07,17.90
2011,09,19,16,08,17.90
2011,09,19,16,09,17.90
2011,09,19,16,10,17.90
2011,09,19,16,11,17.90
2011,09,19,16,12,18.00
2011,09,19,16,13,18.10
2011,09,19,16,14,18.10
2011,09,19,16,15,18.20
2011,09,19,16,16,18.30
2011,09,19,16,17,18.30
2011,09,19,16,18,18.20
2011,09,19,16,19,18.20
2011,09,19,16,20,18.20
2011,09,19,16,21,18.00
2011,09,19,16,22,17.90
2011,09,19,16,23,17.90
2011,09,19,16,24,17.80
2011,09,19,16,25,17.90
2011,09,19,16,26,17.90
2011,09,19,16,27,17.90
2011,09,19,16,28,17.90
2011,09,19,16,29,18.00
2011,09,19,16,30,18.10
2011,09,19,16,31,18.20
2011,09,19,16,32,18.20
2011,09,19,16,33,18.30
2011,09,19,16,34,18.30
2011,09,19,16,35,18.20
2011,09,19,16,36,18.20
2011,09,19,16,37,18.20
2011,09,19,16,38,18.20
2011,09,19,16,39,18.20
2011,09,19,16,40,18.20
2011,09,19,16,41,18.20
2011,09,19,16,42,18.20
2011,09,19,16,43,18.20
2011,09,19,16,44,18.40
2011,09,19,16,45,18.50
2011,09,19,16,46,18.50
2011,09,19,16,47,18.50
2011,09,19,16,48,18.60
2011,09,19,16,49,18.60
2011,09,19,16,50,18.70
2011,09,19,16,51,18.70
2011,09,19,16,52,18.70
2011,09,19,16,53,18.70
2011,09,19,16,54,18.60
2011,09,19,16,55,18.60
2011,09,19,16,56,18.50
2011,09,19,16,57,18.50
2011,09,19,16,58,18.40
2011,09,19,16,59,18.40
2011,09,19,17,00,18.30
2011,09,19,17,01,18.30
2011,09,19,17,02,18.30
2011,09,19,17,03,18.20
2011,09,19,17,04,18.20
2011,09,19,17,05,18.20
2011,09,19,17,06,18.20
2011,09,19,17,07,18.20
2011,09,19,17,08,18.20
2011,09,19,17,09,18.20
2011,09,19,17,10,18.20
2011,09,19,17,11,18.30
2011,09,19,17,12,18.30
2011,09,19,17,13,18.30
2011,09,19,17,14,18.30
2011,09,19,17,15,18.30
2011,09,19,17,16,18.30
2011,09,19,17,17,18.30
2011,09,19,17,18,18.30
2011,09,19,17,19,18.30
2011,09,19,17,20,18.30
2011,09,19,17,21,18.30
2011,09,19,17,22,18.20
2011,09,19,17,23,18.30
2011,09,19,17,24,18.30
2011,09,19,17,25,18.30
2011,09,19,17,26,18.40